Weather History for KCMR - October, 2013

Change the Weather History Date:

Saturday, October 26, 2013

  Actual Average (KFLG) Record (KFLG)
Temperature  
Mean Temperature 48 °F 44 °F  
Max Temperature 66 °F 58 °F 75 °F (1959)
Min Temperature 30 °F 29 °F 14 °F (1972)
Degree Days  
Heating Degree Days 17 22  
Month to date heating degree days 454  
Since 1 July heating degree days 771  
Cooling Degree Days 0 0  
Month to date cooling degree days 0  
Year to date cooling degree days 117  
Moisture  
Dew Point 26 °F    
Average Humidity 49    
Maximum Humidity 86    
Minimum Humidity 21    
Precipitation  
Precipitation 0.00 in 0.05 in 0.67 in (1982)
Month to date precipitation 1.39  
Year to date precipitation 17.96  
Snow  
Snow 0.00 in 0.00 in 2.40 in (1980)
Month to date snowfall 0.9  
Since 1 July snowfall 0.9  
Snow Depth -    
Sea Level Pressure  
Sea Level Pressure 30.39 in    
Wind  
Wind Speed 7 mph (SE)    
Max Wind Speed 16 mph    
Max Gust Speed 24 mph    
Visibility 10 miles    
Events      
T = Trace of Precipitation, MM = Missing Value Source: NWS Daily Summary

Daily Weather History Graph

Daily Weather History Graph

Search for Another Location

Airport or City:

Trip Planner

Search our weather history database for the weather conditions in past years. The results will help you decide how hot, cold, wet, or windy it might be!

Date:

Astronomy

Oct. 26, 2013 Rise Set
Actual Time 6:44 AM MST 5:39 PM MST
Civil Twilight 6:18 AM MST 6:05 PM MST
Nautical Twilight 5:49 AM MST 6:35 PM MST
Astronomical Twilight 5:19 AM MST 7:05 PM MST
Moon No Moon Rise 1:01 PM MST (10/26)
Length of Visible Light 11h 47m
Length of Day
10h 55m
Waning Gibbous, 52% of the Moon is Illuminated
Oct 26
Waning Gibbous
Oct 26
Last Quarter
Nov 3
New
Nov 9
First Quarter
Nov 17
Full

Hourly Weather History & Observations

Time (MST) Temp. Windchill Dew Point Humidity Pressure Visibility Wind Dir Wind Speed Gust Speed Precip Events Conditions
12:15 AM 35.6 °F 29.2 °F 26.6 °F 70% 30.38 in 10.0 mi SSE 8.1 mph - N/A   Clear
12:35 AM 35.6 °F 29.2 °F 24.8 °F 65% 30.38 in 10.0 mi SSE 8.1 mph - N/A   Clear
12:55 AM 37.4 °F 32.1 °F 26.6 °F 65% 30.38 in 10.0 mi SSE 6.9 mph - N/A   Clear
1:15 AM 37.4 °F 31.4 °F 26.6 °F 65% 30.38 in 10.0 mi SSE 8.1 mph - N/A   Clear
1:35 AM 33.8 °F 27.0 °F 26.6 °F 75% 30.38 in 10.0 mi SSE 8.1 mph - N/A   Clear
1:55 AM 37.4 °F 32.1 °F 28.4 °F 70% 30.38 in 10.0 mi SSE 6.9 mph - N/A   Clear
2:15 AM 37.4 °F 32.1 °F 28.4 °F 70% 30.38 in 10.0 mi SSE 6.9 mph - N/A   Clear
2:35 AM 33.8 °F 27.7 °F 26.6 °F 75% 30.38 in 10.0 mi SSE 6.9 mph - N/A   Clear
2:55 AM 32.0 °F 24.8 °F 26.6 °F 80% 30.39 in 10.0 mi SSE 8.1 mph - N/A   Clear
3:15 AM 32.0 °F 24.8 °F 26.6 °F 80% 30.39 in 10.0 mi SSE 8.1 mph - N/A   Clear
3:35 AM 32.0 °F 24.8 °F 26.6 °F 80% 30.39 in 10.0 mi SSE 8.1 mph - N/A   Clear
3:55 AM 32.0 °F 24.8 °F 26.6 °F 80% 30.39 in 10.0 mi SSE 8.1 mph - N/A   Clear
4:15 AM 32.0 °F 24.8 °F 26.6 °F 80% 30.39 in 10.0 mi SSE 8.1 mph - N/A   Clear
4:35 AM 32.0 °F 25.6 °F 26.6 °F 80% 30.39 in 10.0 mi SSE 6.9 mph - N/A   Clear
4:55 AM 32.0 °F 24.8 °F 26.6 °F 80% 30.40 in 10.0 mi SSE 8.1 mph - N/A   Clear
5:15 AM 32.0 °F 25.6 °F 26.6 °F 80% 30.40 in 10.0 mi SSE 6.9 mph - N/A   Clear
5:35 AM 32.0 °F 24.8 °F 26.6 °F 80% 30.40 in 10.0 mi SSE 8.1 mph - N/A   Clear
5:55 AM 32.0 °F 24.8 °F 26.6 °F 80% 30.40 in 10.0 mi SSE 8.1 mph - N/A   Clear
6:15 AM 30.2 °F 24.3 °F 24.8 °F 80% 30.40 in 10.0 mi SSE 5.8 mph - N/A   Clear
6:35 AM 30.2 °F 24.3 °F 26.6 °F 86% 30.40 in 10.0 mi SSE 5.8 mph - N/A   Clear
6:55 AM 30.2 °F 25.4 °F 24.8 °F 80% 30.41 in 10.0 mi SE 4.6 mph - N/A   Clear
7:15 AM 30.2 °F 24.3 °F 26.6 °F 86% 30.42 in 10.0 mi SSE 5.8 mph - N/A   Clear
7:35 AM 32.0 °F 28.7 °F 26.6 °F 80% 30.42 in 10.0 mi SSE 3.5 mph - N/A   Clear
7:55 AM 39.2 °F - 28.4 °F 65% 30.43 in 10.0 mi Calm Calm - N/A   Clear
8:15 AM 44.6 °F 43.1 °F 30.2 °F 57% 30.43 in 10.0 mi SE 3.5 mph - N/A   Clear
8:35 AM 50.0 °F - 32.0 °F 50% 30.44 in 10.0 mi Calm Calm - N/A   Clear
8:55 AM 53.6 °F - 32.0 °F 44% 30.44 in 10.0 mi East 3.5 mph - N/A   Clear
9:15 AM 57.2 °F - 30.2 °F 36% 30.44 in 10.0 mi NE 8.1 mph - N/A   Clear
9:35 AM 57.2 °F - 30.2 °F 36% 30.44 in 10.0 mi NNE 8.1 mph - N/A   Clear
9:55 AM 59.0 °F - 28.4 °F 31% 30.44 in 10.0 mi NNE 6.9 mph - N/A   Clear
10:15 AM 59.0 °F - 28.4 °F 31% 30.44 in 10.0 mi SE 5.8 mph - N/A   Clear
10:35 AM 60.8 °F - 28.4 °F 29% 30.43 in 10.0 mi NE 6.9 mph - N/A   Clear
10:55 AM 62.6 °F - 28.4 °F 27% 30.43 in 10.0 mi ENE 6.9 mph - N/A   Clear
11:15 AM 62.6 °F - 24.8 °F 24% 30.42 in 10.0 mi NE 10.4 mph - N/A   Clear
11:35 AM 62.6 °F - 24.8 °F 24% 30.42 in 10.0 mi NNW 4.6 mph - N/A   Clear
11:55 AM 64.4 °F - 26.6 °F 24% 30.42 in 10.0 mi SE 4.6 mph - N/A   Clear
12:15 PM 64.4 °F - 26.6 °F 24% 30.41 in 10.0 mi SE 6.9 mph - N/A   Clear
12:35 PM 64.4 °F - 24.8 °F 22% 30.40 in 10.0 mi SSE 8.1 mph - N/A   Clear
12:55 PM 64.4 °F - 24.8 °F 22% 30.39 in 10.0 mi SSW 3.5 mph - N/A   Clear
1:15 PM 66.2 °F - 24.8 °F 21% 30.38 in 10.0 mi North 5.8 mph - N/A   Clear
1:35 PM 64.4 °F - 23.0 °F 21% 30.37 in 10.0 mi North 3.5 mph - N/A   Clear
1:55 PM 64.4 °F - 23.0 °F 21% 30.36 in 10.0 mi NNE 4.6 mph - N/A   Clear
2:15 PM 66.2 °F - 24.8 °F 21% 30.35 in 10.0 mi NNE 16.1 mph - N/A   Clear
2:35 PM 66.2 °F - 24.8 °F 21% 30.35 in 10.0 mi NE 12.7 mph 18.4 mph N/A   Clear
2:55 PM 64.4 °F - 24.8 °F 22% 30.35 in 10.0 mi ENE 10.4 mph - N/A   Clear
3:15 PM 66.2 °F - 24.8 °F 21% 30.35 in 10.0 mi ENE 11.5 mph 24.2 mph N/A   Partly Cloudy
3:35 PM 64.4 °F - 26.6 °F 24% 30.35 in 10.0 mi ESE 8.1 mph - N/A   Scattered Clouds
3:55 PM 66.2 °F - 26.6 °F 23% 30.36 in 10.0 mi ESE 8.1 mph - N/A   Scattered Clouds
4:15 PM 64.4 °F - 26.6 °F 24% 30.36 in 10.0 mi ESE 11.5 mph - N/A   Scattered Clouds
4:35 PM 64.4 °F - 26.6 °F 24% 30.36 in 10.0 mi ESE 10.4 mph - N/A   Mostly Cloudy
4:55 PM 62.6 °F - 26.6 °F 26% 30.36 in 10.0 mi ESE 8.1 mph - N/A   Mostly Cloudy
5:15 PM 60.8 °F - 26.6 °F 27% 30.36 in 10.0 mi ESE 6.9 mph - N/A   Scattered Clouds
5:35 PM 57.2 °F - 26.6 °F 31% 30.36 in 10.0 mi ESE 5.8 mph - N/A   Partly Cloudy
5:55 PM 55.4 °F - 26.6 °F 33% 30.37 in 10.0 mi East 4.6 mph - N/A   Clear
6:15 PM 53.6 °F - 24.8 °F 33% 30.37 in 10.0 mi SE 5.8 mph - N/A   Clear
6:35 PM 53.6 °F - 24.8 °F 33% 30.38 in 10.0 mi ESE 6.9 mph - N/A   Clear
6:55 PM 50.0 °F - 24.8 °F 37% 30.38 in 10.0 mi SSE 6.9 mph - N/A   Clear
7:15 PM 50.0 °F - 24.8 °F 37% 30.38 in 10.0 mi South 6.9 mph - N/A   Clear
7:35 PM 46.4 °F 42.4 °F 24.8 °F 43% 30.37 in 10.0 mi SSE 8.1 mph - N/A   Clear
7:55 PM 46.4 °F 42.9 °F 24.8 °F 43% 30.37 in 10.0 mi SSE 6.9 mph - N/A   Clear
8:15 PM 46.4 °F 42.9 °F 24.8 °F 43% 30.37 in 10.0 mi SSE 6.9 mph - N/A   Clear
8:35 PM 44.6 °F 40.7 °F 24.8 °F 46% 30.37 in 10.0 mi SSE 6.9 mph - N/A   Clear
8:55 PM 41.0 °F 35.8 °F 24.8 °F 53% 30.37 in 10.0 mi SSE 8.1 mph - N/A   Clear
9:15 PM 44.6 °F 40.2 °F 24.8 °F 46% 30.37 in 10.0 mi SSE 8.1 mph - N/A   Clear
9:35 PM 42.8 °F 38.0 °F 24.8 °F 49% 30.37 in 10.0 mi SSE 8.1 mph - N/A   Clear
9:55 PM 41.0 °F 35.8 °F 24.8 °F 53% 30.37 in 10.0 mi SSE 8.1 mph - N/A   Clear
10:15 PM 44.6 °F 40.7 °F 24.8 °F 46% 30.36 in 10.0 mi SSE 6.9 mph - N/A   Clear
10:35 PM 46.4 °F 42.4 °F 26.6 °F 46% 30.36 in 10.0 mi South 8.1 mph - N/A   Clear
10:55 PM 44.6 °F 40.7 °F 26.6 °F 49% 30.36 in 10.0 mi SSE 6.9 mph - N/A   Clear
11:15 PM 41.0 °F 35.8 °F 24.8 °F 53% 30.35 in 10.0 mi South 8.1 mph - N/A   Clear
11:35 PM 39.2 °F 33.6 °F 24.8 °F 56% 30.35 in 10.0 mi South 8.1 mph - N/A   Clear
11:55 PM 41.0 °F 35.8 °F 26.6 °F 57% 30.35 in 10.0 mi South 8.1 mph - N/A   Clear